Tracking 28052 objects as of 25-Sep-2023
HD Live streaming from Space Station
objects crossing your sky now

CZ-4C DEB

Track CZ-4C DEB now!
10-day predictions


NORAD ID: 37567
Int'l Code: 2010-038C
Perigee: 577.6 km
Apogee: 758.5 km
Inclination: 97.8 °
Period: 98.0 minutes
Semi major axis: 7039 km
RCS: 0.0012 m2 (small)
Launch date: August 9, 2010
Source: People's Republic of China (PRC)
Launch site: Taiyaun Space Center, China (TSC)

Note: This is SATELLITE DEBRIS
Your satellite tracking list
Your tracking list is empty




NASA's NSSDC Master Catalog

Two Line Element Set (TLE):
1 37567U 10038C   23267.03998799  .00008792  00000-0  12959-2 0  9998
2 37567  97.7638 110.1136 0128541 261.9647 252.2532 14.70044590694430
Source of the keplerian elements: AFSPC